EN

Hourly Weather Parashchyne Pole

Today, 5 March, Friday

Time Temperature Precipitation Wind Pressure Humidity
00:00 +1°C° 0 mm 4 mps 742 mmHg 81%
01:00 +1°C° 0 mm 4 mps 742 mmHg 83%
02:00 +2°C° 0 mm 3 mps 741 mmHg 89%
03:00 +2°C° 0 mm 3 mps 742 mmHg 90%
04:00 +1°C° 0 mm 3 mps 742 mmHg 91%
05:00 +2°C° 0 mm 2 mps 742 mmHg 92%
06:00 +2°C° 0.3 mm 2 mps 742 mmHg 93%
07:00 +2°C° 0.3 mm 2 mps 742 mmHg 94%
08:00 +3°C° 0.3 mm 2 mps 742 mmHg 95%
09:00 +4°C° 0.2 mm 1 mps 742 mmHg 93%
10:00 +4°C° 0.2 mm 1 mps 742 mmHg 91%
11:00 +5°C° 0.2 mm 1 mps 743 mmHg 89%
12:00 +5°C° 0.1 mm 1 mps 743 mmHg 89%
13:00 +5°C° 0.1 mm 1 mps 742 mmHg 90%
14:00 +5°C° 0.1 mm 1 mps 742 mmHg 90%
15:00 +4°C° 0.1 mm 2 mps 742 mmHg 92%
16:00 +3°C° 0.1 mm 2 mps 743 mmHg 94%
17:00 +3°C° 0.1 mm 2 mps 743 mmHg 96%
18:00 +2°C° 0.3 mm 3 mps 743 mmHg 96%
19:00 +1°C° 0.3 mm 3 mps 743 mmHg 96%
20:00 +1°C° 0.3 mm 3 mps 743 mmHg 96%
21:00 0°C° 1 mm 4 mps 743 mmHg 97%
22:00 -1°C° 1 mm 5 mps 743 mmHg 97%
23:00 -2°C° 1 mm 6 mps 743 mmHg 97%

Tomorrow, 6 March, Saturday

Time Temperature Precipitation Wind Pressure Humidity
00:00 -3°C° 1.8 mm 6 mps 744 mmHg 96%
01:00 -4°C° 1.8 mm 7 mps 744 mmHg 96%
02:00 -4°C° 1.8 mm 7 mps 745 mmHg 96%
03:00 -6°C° 0.4 mm 7 mps 745 mmHg 94%
04:00 -6°C° 0.4 mm 7 mps 745 mmHg 92%
05:00 -5°C° 0.4 mm 6 mps 746 mmHg 90%
06:00 -6°C° 0 mm 6 mps 746 mmHg 89%
07:00 -6°C° 0 mm 6 mps 747 mmHg 87%
08:00 -6°C° 0 mm 6 mps 748 mmHg 86%
09:00 -6°C° 0 mm 6 mps 749 mmHg 81%
10:00 -5°C° 0 mm 6 mps 749 mmHg 77%
11:00 -5°C° 0 mm 6 mps 750 mmHg 73%
12:00 -5°C° 0 mm 6 mps 750 mmHg 71%
13:00 -5°C° 0 mm 6 mps 750 mmHg 69%
14:00 -4°C° 0 mm 6 mps 751 mmHg 67%
15:00 -5°C° 0 mm 5 mps 751 mmHg 71%
16:00 -4°C° 0 mm 4 mps 751 mmHg 75%
17:00 -5°C° 0 mm 3 mps 751 mmHg 79%
18:00 -5°C° 0 mm 3 mps 751 mmHg 80%
19:00 -6°C° 0 mm 3 mps 752 mmHg 81%
20:00 -7°C° 0 mm 3 mps 752 mmHg 82%
21:00 -8°C° 0 mm 4 mps 752 mmHg 81%
22:00 -8°C° 0 mm 4 mps 752 mmHg 81%
23:00 -8°C° 0 mm 4 mps 752 mmHg 81%

Day after tomorrow, 7 March, Sunday

Time Temperature Precipitation Wind Pressure Humidity
00:00 -8°C° 0 mm 4 mps 752 mmHg 81%
01:00 -8°C° 0 mm 4 mps 752 mmHg 82%
02:00 -8°C° 0 mm 4 mps 752 mmHg 83%
03:00 -8°C° 0 mm 4 mps 752 mmHg 83%
04:00 -8°C° 0 mm 4 mps 752 mmHg 83%
05:00 -8°C° 0 mm 3 mps 752 mmHg 83%
06:00 -8°C° 0 mm 4 mps 752 mmHg 81%
07:00 -7°C° 0 mm 5 mps 751 mmHg 78%
08:00 -6°C° 0 mm 5 mps 751 mmHg 76%
09:00 -5°C° 0 mm 6 mps 751 mmHg 74%
10:00 -4°C° 0 mm 7 mps 750 mmHg 72%
11:00 -4°C° 0 mm 8 mps 750 mmHg 71%
12:00 -2°C° 0 mm 8 mps 749 mmHg 69%
13:00 -2°C° 0 mm 8 mps 748 mmHg 67%
14:00 -1°C° 0 mm 8 mps 748 mmHg 65%
15:00 -2°C° 0 mm 8 mps 747 mmHg 65%
16:00 -2°C° 0 mm 7 mps 747 mmHg 66%
17:00 -2°C° 0 mm 6 mps 746 mmHg 66%
18:00 -2°C° 0 mm 6 mps 746 mmHg 67%
19:00 -3°C° 0 mm 6 mps 746 mmHg 69%
20:00 -2°C° 0 mm 5 mps 746 mmHg 70%
21:00 -2°C° 0 mm 5 mps 746 mmHg 71%
22:00 -2°C° 0 mm 5 mps 745 mmHg 71%
23:00 -2°C° 0 mm 5 mps 745 mmHg 72%

8 March, Monday

Time Temperature Precipitation Wind Pressure Humidity
00:00 -2°C° 0 mm 5 mps 745 mmHg 73%
01:00 -2°C° 0 mm 5 mps 745 mmHg 74%
02:00 -4°C° 0 mm 5 mps 744 mmHg 74%
03:00 -4°C° 0 mm 5 mps 744 mmHg 76%
04:00 -4°C° 0 mm 5 mps 743 mmHg 77%
05:00 -4°C° 0 mm 5 mps 743 mmHg 79%
06:00 -4°C° 0 mm 6 mps 743 mmHg 76%
07:00 -3°C° 0 mm 6 mps 743 mmHg 74%
08:00 -3°C° 0 mm 7 mps 743 mmHg 72%
09:00 -2°C° 0 mm 7 mps 743 mmHg 71%
10:00 -2°C° 0 mm 6 mps 743 mmHg 71%
11:00 -1°C° 0 mm 6 mps 743 mmHg 71%
12:00 -1°C° 0 mm 6 mps 743 mmHg 71%
13:00 0°C° 0 mm 5 mps 743 mmHg 72%
14:00 0°C° 0 mm 5 mps 743 mmHg 72%
15:00 0°C° 0 mm 4 mps 743 mmHg 75%
16:00 0°C° 0 mm 3 mps 743 mmHg 78%
17:00 +1°C° 0 mm 2 mps 743 mmHg 80%
18:00 +1°C° 0 mm 2 mps 743 mmHg 84%
19:00 -1°C° 0 mm 2 mps 743 mmHg 88%
20:00 -1°C° 0 mm 2 mps 743 mmHg 92%
21:00 -1°C° 0.2 mm 2 mps 743 mmHg 93%
22:00 -1°C° 0.2 mm 3 mps 743 mmHg 94%
23:00 -2°C° 0.2 mm 4 mps 743 mmHg 95%

9 March, Tuesday

Time Temperature Precipitation Wind Pressure Humidity
00:00 -3°C° 0.2 mm 4 mps 743 mmHg 95%
01:00 -2°C° 0.2 mm 3 mps 743 mmHg 94%
02:00 -4°C° 0.2 mm 3 mps 743 mmHg 93%
03:00 -4°C° 0 mm 3 mps 743 mmHg 92%
04:00 -5°C° 0 mm 3 mps 743 mmHg 91%
05:00 -5°C° 0 mm 3 mps 743 mmHg 90%
06:00 -5°C° 0 mm 4 mps 744 mmHg 86%
07:00 -4°C° 0 mm 4 mps 744 mmHg 82%
08:00 -5°C° 0 mm 5 mps 744 mmHg 78%
09:00 -5°C° 0 mm 5 mps 745 mmHg 73%
10:00 -4°C° 0 mm 5 mps 745 mmHg 69%
11:00 -4°C° 0 mm 6 mps 746 mmHg 65%
12:00 -4°C° 0.1 mm 6 mps 746 mmHg 65%
13:00 -4°C° 0.1 mm 6 mps 746 mmHg 65%
14:00 -3°C° 0.1 mm 6 mps 747 mmHg 65%
15:00 -4°C° 0.1 mm 7 mps 747 mmHg 68%
16:00 -6°C° 0.1 mm 7 mps 747 mmHg 71%
17:00 -7°C° 0.1 mm 7 mps 748 mmHg 74%
18:00 -8°C° 0 mm 6 mps 748 mmHg 74%
19:00 -9°C° 0 mm 6 mps 749 mmHg 74%
20:00 -10°C° 0 mm 6 mps 750 mmHg 74%
21:00 -10°C° 0 mm 5 mps 750 mmHg 74%
22:00 -11°C° 0 mm 5 mps 751 mmHg 74%
23:00 -11°C° 0 mm 5 mps 751 mmHg 74%

10 March, Wednesday

Time Temperature Precipitation Wind Pressure Humidity
00:00 -10°C° 0 mm 4 mps 751 mmHg 74%
01:00 -10°C° 0 mm 4 mps 752 mmHg 74%
02:00 -9°C° 0 mm 3 mps 752 mmHg 74%
03:00 -9°C° 0 mm 3 mps 752 mmHg 74%
04:00 -10°C° 0 mm 3 mps 752 mmHg 74%
05:00 -10°C° 0 mm 3 mps 752 mmHg 75%
06:00 -10°C° 0 mm 3 mps 752 mmHg 74%
07:00 -9°C° 0 mm 3 mps 752 mmHg 72%
08:00 -9°C° 0 mm 3 mps 752 mmHg 71%
09:00 -7°C° 0 mm 2 mps 752 mmHg 65%
10:00 -7°C° 0 mm 2 mps 752 mmHg 59%
11:00 -6°C° 0 mm 2 mps 753 mmHg 54%
12:00 -5°C° 0 mm 2 mps 752 mmHg 50%
13:00 -3°C° 0 mm 1 mps 752 mmHg 47%
14:00 -2°C° 0 mm 1 mps 752 mmHg 44%
15:00 -2°C° 0 mm 1 mps 752 mmHg 45%
16:00 -2°C° 0 mm 1 mps 752 mmHg 46%
17:00 -2°C° 0 mm 1 mps 751 mmHg 47%
18:00 -3°C° 0 mm 1 mps 752 mmHg 52%
19:00 -3°C° 0 mm 1 mps 752 mmHg 57%
20:00 -4°C° 0 mm 1 mps 752 mmHg 62%
21:00 -4°C° 0 mm 1 mps 752 mmHg 63%
22:00 -4°C° 0 mm 1 mps 752 mmHg 64%
23:00 -4°C° 0 mm 1 mps 752 mmHg 65%
Show more

We Need Your Consent

Meteoprog and our Service Providers may store and access personal data such as cookies, device identifiers or other similar technologies on your device and process such data to personalise content and ads, as well as provide social media features and to analyse the traffic.

  • Store and/or access information on your device

    Cookies, device identifiers or other information can be stored or accessed on your device for the purposes indicated above.

  • Personalised ads and content, ad and content measurement, audience insights, and products development

    Ads and content can be personalised based on a profile. More data can be added to better personalise ads and content. Ad and content performance can be measured. Insights about the audience who saw the ads and content can be derived. Such data can be used to develop or improve user’s experience, systems and software.

By clicking ‘I Agree’ you will allow the use of indicated cookies, device identifiers, web beacons or other similar technologies. Your settings can be changed in the browser on your device.

For certain purposes, legitimate interests may be relied on, rather than consent. You can read more about this in our Privacy and Cookie Policy.